Time,TemperatureF,DewpointF,PressureIn,WindDirection,WindDirectionDegrees,WindSpeedMPH,WindSpeedGustMPH,Humidity,HourlyPrecipIn,Conditions,Clouds,dailyrainin,SolarRadiationWatts/m^2,SoftwareType,DateUTC
2013-06-21 00:04:00,57.0,53.8,30.25,ENE,78,0.0,0.0,89,0.00,,,0.00,0,Wunderground v.1.15,2013-06-21 04:04:00,
2013-06-21 00:09:00,56.9,54.0,30.25,SE,142,0.0,0.0,90,0.00,,,0.00,0,Wunderground v.1.15,2013-06-21 04:09:00,
2013-06-21 00:14:00,56.9,54.0,30.25,SE,142,0.0,1.0,90,0.00,,,0.00,0,Wunderground v.1.15,2013-06-21 04:14:00,
2013-06-21 00:19:00,56.8,53.9,30.25,West,272,0.0,1.0,90,0.00,,,0.00,0,Wunderground v.1.15,2013-06-21 04:19:00,
2013-06-21 00:24:00,56.7,53.8,30.25,West,259,0.0,0.0,90,0.00,,,0.00,0,Wunderground v.1.15,2013-06-21 04:24:00,
2013-06-21 00:29:00,56.6,53.7,30.25,East,99,0.0,0.0,90,0.00,,,0.00,0,Wunderground v.1.15,2013-06-21 04:29:00,
2013-06-21 00:34:00,56.5,53.9,30.25,East,99,0.0,0.0,91,0.00,,,0.00,0,Wunderground v.1.15,2013-06-21 04:34:00,
2013-06-21 00:39:00,56.4,53.8,30.25,East,100,0.0,0.0,91,0.00,,,0.00,0,Wunderground v.1.15,2013-06-21 04:39:00,
2013-06-21 00:49:00,56.2,53.6,30.25,ESE,121,0.0,0.0,91,0.00,,,0.00,0,Wunderground v.1.15,2013-06-21 04:49:00,
2013-06-21 00:54:00,56.2,53.6,30.25,South,180,0.0,0.0,91,0.00,,,0.00,0,Wunderground v.1.15,2013-06-21 04:54:00,
2013-06-21 01:04:00,56.0,53.4,30.25,ESE,104,0.0,0.0,91,0.00,,,0.00,0,Wunderground v.1.15,2013-06-21 05:04:00,
2013-06-21 01:09:00,56.0,53.4,30.25,East,89,0.0,0.0,91,0.00,,,0.00,0,Wunderground v.1.15,2013-06-21 05:09:00,
2013-06-21 01:14:00,55.9,53.3,30.24,South,169,1.0,1.0,91,0.00,,,0.00,0,Wunderground v.1.15,2013-06-21 05:14:00,
2013-06-21 01:19:00,55.9,53.3,30.24,ENE,58,0.0,1.0,91,0.00,,,0.00,0,Wunderground v.1.15,2013-06-21 05:19:00,
2013-06-21 01:24:00,55.9,53.3,30.24,ENE,58,0.0,0.0,91,0.00,,,0.00,0,Wunderground v.1.15,2013-06-21 05:24:00,
2013-06-21 01:34:00,55.8,53.2,30.24,ENE,66,0.0,0.0,91,0.00,,,0.00,0,Wunderground v.1.15,2013-06-21 05:34:00,
2013-06-21 01:44:00,55.7,53.4,30.24,ENE,65,0.0,0.0,92,0.00,,,0.00,0,Wunderground v.1.15,2013-06-21 05:44:00,
2013-06-21 01:49:00,55.6,53.3,30.24,ENE,64,0.0,0.0,92,0.00,,,0.00,0,Wunderground v.1.15,2013-06-21 05:49:00,
2013-06-21 01:59:00,55.5,53.2,30.24,ENE,60,0.0,0.0,92,0.00,,,0.00,0,Wunderground v.1.15,2013-06-21 05:59:00,
2013-06-21 02:04:00,55.4,53.1,30.24,South,182,0.0,0.0,92,0.00,,,0.00,0,Wunderground v.1.15,2013-06-21 06:04:00,
2013-06-21 02:14:00,55.4,53.1,30.24,ESE,115,0.0,0.0,92,0.00,,,0.00,0,Wunderground v.1.15,2013-06-21 06:14:00,
2013-06-21 02:19:00,55.4,53.1,30.24,SE,131,0.0,0.0,92,0.00,,,0.00,0,Wunderground v.1.15,2013-06-21 06:19:00,
2013-06-21 02:24:00,55.3,53.0,30.24,SE,131,0.0,0.0,92,0.00,,,0.00,0,Wunderground v.1.15,2013-06-21 06:24:00,
2013-06-21 02:29:00,55.3,53.0,30.24,SE,128,0.0,0.0,92,0.00,,,0.00,0,Wunderground v.1.15,2013-06-21 06:29:00,
2013-06-21 02:34:00,55.2,52.9,30.24,SE,128,0.0,0.0,92,0.00,,,0.00,0,Wunderground v.1.15,2013-06-21 06:34:00,
2013-06-21 02:39:00,55.2,52.9,30.24,SE,142,0.0,1.0,92,0.00,,,0.00,0,Wunderground v.1.15,2013-06-21 06:39:00,
2013-06-21 02:49:00,55.1,53.1,30.23,SSE,151,1.0,1.0,93,0.00,,,0.00,0,Wunderground v.1.15,2013-06-21 06:49:00,
2013-06-21 02:54:00,55.1,53.1,30.23,East,85,1.0,1.0,93,0.00,,,0.00,0,Wunderground v.1.15,2013-06-21 06:54:00,
2013-06-21 02:59:00,55.0,53.0,30.23,ESE,110,0.0,1.0,93,0.00,,,0.00,0,Wunderground v.1.15,2013-06-21 06:59:00,
2013-06-21 03:04:00,55.0,53.0,30.23,ENE,60,0.0,0.0,93,0.00,,,0.00,0,Wunderground v.1.15,2013-06-21 07:04:00,
2013-06-21 03:09:00,55.0,53.0,30.23,East,79,0.0,0.0,93,0.00,,,0.00,0,Wunderground v.1.15,2013-06-21 07:09:00,
2013-06-21 03:14:00,54.9,52.9,30.23,SE,126,0.0,2.0,93,0.00,,,0.00,0,Wunderground v.1.15,2013-06-21 07:14:00,
2013-06-21 03:24:00,54.8,53.1,30.23,ENE,58,0.0,0.0,94,0.00,,,0.00,0,Wunderground v.1.15,2013-06-21 07:24:00,
2013-06-21 03:29:00,54.9,53.2,30.24,WSW,237,0.0,0.0,94,0.00,,,0.00,0,Wunderground v.1.15,2013-06-21 07:29:00,
2013-06-21 03:34:00,54.8,53.1,30.24,WSW,242,0.0,0.0,94,0.00,,,0.00,0,Wunderground v.1.15,2013-06-21 07:34:00,
2013-06-21 03:39:00,54.8,53.1,30.24,WSW,238,0.0,0.0,94,0.00,,,0.00,0,Wunderground v.1.15,2013-06-21 07:39:00,
2013-06-21 03:49:00,54.8,53.1,30.24,SSE,148,0.0,0.0,94,0.00,,,0.00,0,Wunderground v.1.15,2013-06-21 07:49:00,
2013-06-21 03:54:00,54.7,53.0,30.24,ESE,122,0.0,0.0,94,0.00,,,0.00,0,Wunderground v.1.15,2013-06-21 07:54:00,
2013-06-21 04:04:00,54.6,52.9,30.24,SW,227,0.0,0.0,94,0.00,,,0.00,0,Wunderground v.1.15,2013-06-21 08:04:00,
2013-06-21 04:09:00,54.6,52.9,30.23,ENE,67,0.0,0.0,94,0.00,,,0.00,0,Wunderground v.1.15,2013-06-21 08:09:00,
2013-06-21 04:14:00,54.6,52.9,30.23,SE,136,0.0,0.0,94,0.00,,,0.00,0,Wunderground v.1.15,2013-06-21 08:14:00,
2013-06-21 04:24:00,54.5,52.8,30.23,SE,124,0.0,0.0,94,0.00,,,0.00,0,Wunderground v.1.15,2013-06-21 08:24:00,
2013-06-21 04:34:00,54.3,52.6,30.23,SSW,207,0.0,0.0,94,0.00,,,0.00,0,Wunderground v.1.15,2013-06-21 08:34:00,
2013-06-21 04:44:00,54.2,52.8,30.23,West,277,0.0,0.0,95,0.00,,,0.00,0,Wunderground v.1.15,2013-06-21 08:44:00,
2013-06-21 04:54:00,54.2,52.8,30.23,SW,232,0.0,0.0,95,0.00,,,0.00,0,Wunderground v.1.15,2013-06-21 08:54:00,
2013-06-21 05:04:00,54.1,52.7,30.24,East,80,0.0,0.0,95,0.00,,,0.00,0,Wunderground v.1.15,2013-06-21 09:04:00,
2013-06-21 05:09:00,54.0,52.6,30.24,SSE,156,0.0,0.0,95,0.00,,,0.00,0,Wunderground v.1.15,2013-06-21 09:09:00,
2013-06-21 05:14:00,53.9,52.5,30.24,North,360,0.0,0.0,95,0.00,,,0.00,0,Wunderground v.1.15,2013-06-21 09:14:00,
2013-06-21 05:24:00,53.8,52.4,30.25,ESE,123,0.0,0.0,95,0.00,,,0.00,5,Wunderground v.1.15,2013-06-21 09:24:00,
2013-06-21 05:29:00,53.7,52.3,30.25,ESE,123,0.0,1.0,95,0.00,,,0.00,7,Wunderground v.1.15,2013-06-21 09:29:00,
2013-06-21 05:34:00,53.7,52.3,30.25,ESE,123,0.0,0.0,95,0.00,,,0.00,11,Wunderground v.1.15,2013-06-21 09:34:00,
2013-06-21 05:39:00,53.6,52.5,30.25,ESE,123,0.0,1.0,96,0.00,,,0.00,14,Wunderground v.1.15,2013-06-21 09:39:00,
2013-06-21 05:49:00,53.6,52.5,30.25,NNE,27,0.0,1.0,96,0.00,,,0.00,23,Wunderground v.1.15,2013-06-21 09:49:00,
2013-06-21 05:54:00,53.6,52.5,30.25,NNE,27,0.0,1.0,96,0.00,,,0.00,25,Wunderground v.1.15,2013-06-21 09:54:00,
2013-06-21 05:59:00,53.7,52.6,30.25,NNE,27,1.0,1.0,96,0.00,,,0.00,30,Wunderground v.1.15,2013-06-21 09:59:00,
2013-06-21 06:09:00,53.9,53.1,30.25,NNE,32,1.0,1.0,97,0.00,,,0.00,35,Wunderground v.1.15,2013-06-21 10:09:00,
2013-06-21 06:14:00,54.1,53.3,30.25,NNE,32,0.0,0.0,97,0.00,,,0.00,54,Wunderground v.1.15,2013-06-21 10:14:00,
2013-06-21 06:19:00,54.3,53.5,30.25,East,82,0.0,0.0,97,0.00,,,0.00,84,Wunderground v.1.15,2013-06-21 10:19:00,
2013-06-21 06:24:00,54.6,53.8,30.25,East,82,0.0,0.0,97,0.00,,,0.00,98,Wunderground v.1.15,2013-06-21 10:24:00,
2013-06-21 06:34:00,55.6,54.8,30.25,SE,136,0.0,0.0,97,0.00,,,0.00,123,Wunderground v.1.15,2013-06-21 10:34:00,
2013-06-21 06:39:00,56.2,55.4,30.25,East,87,0.0,1.0,97,0.00,,,0.00,135,Wunderground v.1.15,2013-06-21 10:39:00,
2013-06-21 06:44:00,56.8,56.0,30.25,East,88,0.0,1.0,97,0.00,,,0.00,151,Wunderground v.1.15,2013-06-21 10:44:00,
2013-06-21 06:49:00,57.5,56.1,30.26,East,88,0.0,2.0,95,0.00,,,0.00,163,Wunderground v.1.15,2013-06-21 10:49:00,
2013-06-21 06:59:00,58.8,56.5,30.26,East,88,0.0,1.0,92,0.00,,,0.00,186,Wunderground v.1.15,2013-06-21 10:59:00,
2013-06-21 07:04:00,59.4,56.8,30.26,East,88,0.0,0.0,91,0.00,,,0.00,207,Wunderground v.1.15,2013-06-21 11:04:00,
2013-06-21 07:09:00,60.1,56.8,30.25,East,88,0.0,1.0,89,0.00,,,0.00,225,Wunderground v.1.15,2013-06-21 11:09:00,
2013-06-21 07:14:00,60.8,57.2,30.25,East,88,0.0,0.0,88,0.00,,,0.00,239,Wunderground v.1.15,2013-06-21 11:14:00,
2013-06-21 07:19:00,61.4,57.5,30.25,SE,127,0.0,0.0,87,0.00,,,0.00,251,Wunderground v.1.15,2013-06-21 11:19:00,
2013-06-21 07:24:00,61.9,57.7,30.25,NE,56,1.0,1.0,86,0.00,,,0.00,264,Wunderground v.1.15,2013-06-21 11:24:00,
2013-06-21 07:29:00,62.5,57.9,30.25,ENE,61,1.0,1.0,85,0.00,,,0.00,276,Wunderground v.1.15,2013-06-21 11:29:00,
2013-06-21 07:34:00,63.0,58.1,30.25,East,84,1.0,2.0,84,0.00,,,0.00,294,Wunderground v.1.15,2013-06-21 11:34:00,
2013-06-21 07:39:00,63.5,58.6,30.25,SW,234,1.0,3.0,84,0.00,,,0.00,311,Wunderground v.1.15,2013-06-21 11:39:00,
2013-06-21 07:49:00,64.3,58.7,30.26,NE,38,1.0,1.0,82,0.00,,,0.00,336,Wunderground v.1.15,2013-06-21 11:49:00,
2013-06-21 07:59:00,65.2,59.2,30.26,ESE,112,1.0,2.0,81,0.00,,,0.00,364,Wunderground v.1.15,2013-06-21 11:59:00,
2013-06-21 08:04:00,65.6,59.6,30.26,East,101,1.0,1.0,81,0.00,,,0.00,376,Wunderground v.1.15,2013-06-21 12:04:00,
2013-06-21 08:09:00,66.0,59.7,30.26,East,80,1.0,1.0,80,0.00,,,0.00,392,Wunderground v.1.15,2013-06-21 12:09:00,
2013-06-21 08:19:00,67.0,59.9,30.26,ENE,78,1.0,1.0,78,0.00,,,0.00,422,Wunderground v.1.15,2013-06-21 12:19:00,
2013-06-21 08:24:00,67.6,60.9,30.26,NNE,22,1.0,1.0,79,0.00,,,0.00,438,Wunderground v.1.15,2013-06-21 12:24:00,
2013-06-21 08:34:00,68.7,61.2,30.26,North,5,1.0,1.0,77,0.00,,,0.00,468,Wunderground v.1.15,2013-06-21 12:34:00,
2013-06-21 08:39:00,69.2,60.9,30.26,SE,146,1.0,1.0,75,0.00,,,0.00,483,Wunderground v.1.15,2013-06-21 12:39:00,
2013-06-21 08:44:00,69.5,61.2,30.26,NE,44,1.0,1.0,75,0.00,,,0.00,494,Wunderground v.1.15,2013-06-21 12:44:00,
2013-06-21 08:49:00,69.7,61.4,30.26,SSE,166,1.0,1.0,75,0.00,,,0.00,506,Wunderground v.1.15,2013-06-21 12:49:00,
2013-06-21 08:59:00,70.1,61.4,30.26,NE,54,2.0,2.0,74,0.00,,,0.00,538,Wunderground v.1.15,2013-06-21 12:59:00,
2013-06-21 09:04:00,70.0,62.1,30.26,ESE,117,2.0,2.0,76,0.00,,,0.00,552,Wunderground v.1.15,2013-06-21 13:04:00,
2013-06-21 09:14:00,70.7,62.8,30.25,NNW,344,1.0,3.0,76,0.00,,,0.00,584,Wunderground v.1.15,2013-06-21 13:14:00,
2013-06-21 09:24:00,71.0,61.1,30.25,NNW,340,3.0,3.0,71,0.00,,,0.00,608,Wunderground v.1.15,2013-06-21 13:24:00,
2013-06-21 09:29:00,71.2,62.1,30.25,NNW,333,3.0,4.0,73,0.00,,,0.00,617,Wunderground v.1.15,2013-06-21 13:29:00,
2013-06-21 09:39:00,71.5,61.6,30.25,ESE,104,2.0,2.0,71,0.00,,,0.00,626,Wunderground v.1.15,2013-06-21 13:39:00,
2013-06-21 09:49:00,71.7,62.6,30.25,NNE,13,2.0,2.0,73,0.00,,,0.00,647,Wunderground v.1.15,2013-06-21 13:49:00,
2013-06-21 09:54:00,72.1,62.6,30.25,NNE,32,2.0,2.0,72,0.00,,,0.00,659,Wunderground v.1.15,2013-06-21 13:54:00,
2013-06-21 09:59:00,72.3,63.5,30.25,NNE,26,2.0,3.0,74,0.00,,,0.00,671,Wunderground v.1.15,2013-06-21 13:59:00,
2013-06-21 10:09:00,73.5,63.5,30.25,ESE,102,2.0,2.0,71,0.00,,,0.00,689,Wunderground v.1.15,2013-06-21 14:09:00,
2013-06-21 10:14:00,73.7,66.0,30.25,ENE,65,1.0,4.0,77,0.00,,,0.00,701,Wunderground v.1.15,2013-06-21 14:14:00,
2013-06-21 10:19:00,73.4,62.6,30.25,SSW,208,1.0,4.0,69,0.00,,,0.00,707,Wunderground v.1.15,2013-06-21 14:19:00,
2013-06-21 10:24:00,73.5,65.1,30.25,East,89,2.0,2.0,75,0.00,,,0.00,714,Wunderground v.1.15,2013-06-21 14:24:00,
2013-06-21 10:29:00,73.1,63.1,30.25,East,82,2.0,3.0,71,0.00,,,0.00,724,Wunderground v.1.15,2013-06-21 14:29:00,
2013-06-21 10:39:00,73.2,63.6,30.25,NE,40,2.0,4.0,72,0.00,,,0.00,758,Wunderground v.1.15,2013-06-21 14:39:00,
2013-06-21 10:49:00,74.6,65.4,30.26,SW,234,2.0,3.0,73,0.00,,,0.00,791,Wunderground v.1.15,2013-06-21 14:49:00,
2013-06-21 10:54:00,74.8,66.7,30.26,SSE,167,2.0,3.0,76,0.00,,,0.00,807,Wunderground v.1.15,2013-06-21 14:54:00,
2013-06-21 11:04:00,75.3,64.4,30.26,East,82,2.0,2.0,69,0.00,,,0.00,809,Wunderground v.1.15,2013-06-21 15:04:00,
2013-06-21 11:09:00,75.0,64.1,30.26,ESE,122,2.0,4.0,69,0.00,,,0.00,828,Wunderground v.1.15,2013-06-21 15:09:00,
2013-06-21 11:19:00,75.3,64.4,30.26,SSW,211,2.0,2.0,69,0.00,,,0.00,896,Wunderground v.1.15,2013-06-21 15:19:00,
2013-06-21 11:29:00,77.1,67.4,30.26,NNW,345,2.0,3.0,72,0.00,,,0.00,269,Wunderground v.1.15,2013-06-21 15:29:00,
2013-06-21 11:34:00,76.4,65.9,30.26,NNW,341,1.0,6.0,70,0.00,,,0.00,981,Wunderground v.1.15,2013-06-21 15:34:00,
2013-06-21 11:39:00,75.4,63.2,30.26,North,355,3.0,6.0,66,0.00,,,0.00,253,Wunderground v.1.15,2013-06-21 15:39:00,
2013-06-21 11:49:00,74.4,64.0,30.26,SW,224,2.0,3.0,70,0.00,,,0.00,902,Wunderground v.1.15,2013-06-21 15:49:00,
2013-06-21 11:59:00,76.6,68.1,30.25,North,355,1.0,4.0,75,0.00,,,0.00,896,Wunderground v.1.15,2013-06-21 15:59:00,
2013-06-21 12:09:00,76.2,66.1,30.25,NE,46,3.0,3.0,71,0.00,,,0.00,958,Wunderground v.1.15,2013-06-21 16:09:00,
2013-06-21 12:14:00,76.1,63.5,30.25,South,169,2.0,2.0,65,0.00,,,0.00,954,Wunderground v.1.15,2013-06-21 16:14:00,
2013-06-21 12:19:00,75.8,66.1,30.25,South,178,2.0,2.0,72,0.00,,,0.00,940,Wunderground v.1.15,2013-06-21 16:19:00,
2013-06-21 12:24:00,76.4,64.6,30.25,SSW,205,3.0,3.0,67,0.00,,,0.00,942,Wunderground v.1.15,2013-06-21 16:24:00,
2013-06-21 12:29:00,76.4,63.8,30.26,North,355,3.0,3.0,65,0.00,,,0.00,970,Wunderground v.1.15,2013-06-21 16:29:00,
2013-06-21 12:34:00,76.2,63.1,30.25,NNW,342,2.0,2.0,64,0.00,,,0.00,981,Wunderground v.1.15,2013-06-21 16:34:00,
2013-06-21 12:44:00,77.2,64.1,30.25,ESE,104,2.0,2.0,64,0.00,,,0.00,1020,Wunderground v.1.15,2013-06-21 16:44:00,
2013-06-21 12:49:00,77.9,68.5,30.25,ENE,57,1.0,2.0,73,0.00,,,0.00,1020,Wunderground v.1.15,2013-06-21 16:49:00,
2013-06-21 12:54:00,77.6,64.0,30.25,SE,134,2.0,2.0,63,0.00,,,0.00,979,Wunderground v.1.15,2013-06-21 16:54:00,
2013-06-21 12:59:00,78.2,64.6,30.25,NE,36,2.0,2.0,63,0.00,,,0.00,264,Wunderground v.1.15,2013-06-21 16:59:00,
2013-06-21 13:04:00,77.0,64.3,30.25,West,277,2.0,2.0,65,0.00,,,0.00,265,Wunderground v.1.15,2013-06-21 17:04:00,
2013-06-21 13:09:00,76.8,64.1,30.25,SSE,150,1.0,3.0,65,0.00,,,0.00,988,Wunderground v.1.15,2013-06-21 17:09:00,
2013-06-21 13:19:00,77.5,65.7,30.25,SSW,197,2.0,3.0,67,0.00,,,0.00,269,Wunderground v.1.15,2013-06-21 17:19:00,
2013-06-21 13:29:00,75.5,64.2,30.25,SSE,159,1.0,2.0,68,0.00,,,0.00,155,Wunderground v.1.15,2013-06-21 17:29:00,
2013-06-21 13:44:00,77.0,66.5,30.24,East,99,2.0,2.0,70,0.00,,,0.00,248,Wunderground v.1.15,2013-06-21 17:44:00,
2013-06-21 13:49:00,76.5,65.6,30.24,SE,140,1.0,2.0,69,0.00,,,0.00,969,Wunderground v.1.15,2013-06-21 17:49:00,
2013-06-21 13:54:00,77.4,66.0,30.24,SE,142,1.0,5.0,68,0.00,,,0.00,548,Wunderground v.1.15,2013-06-21 17:54:00,
2013-06-21 14:04:00,77.5,66.5,30.23,SE,130,2.0,2.0,69,0.00,,,0.00,923,Wunderground v.1.15,2013-06-21 18:04:00,
2013-06-21 14:09:00,78.0,63.9,30.23,ENE,63,2.0,3.0,62,0.00,,,0.00,898,Wunderground v.1.15,2013-06-21 18:09:00,
2013-06-21 14:19:00,78.1,63.6,30.22,SSE,159,2.0,2.0,61,0.00,,,0.00,230,Wunderground v.1.15,2013-06-21 18:19:00,
2013-06-21 14:24:00,77.1,64.4,30.22,SE,146,2.0,3.0,65,0.00,,,0.00,169,Wunderground v.1.15,2013-06-21 18:24:00,
2013-06-21 14:29:00,75.9,63.7,30.23,ESE,119,1.0,3.0,66,0.00,,,0.00,283,Wunderground v.1.15,2013-06-21 18:29:00,
2013-06-21 14:34:00,76.4,63.8,30.23,WNW,284,1.0,2.0,65,0.00,,,0.00,265,Wunderground v.1.15,2013-06-21 18:34:00,
2013-06-21 14:39:00,76.7,64.9,30.23,SE,141,1.0,2.0,67,0.00,,,0.00,272,Wunderground v.1.15,2013-06-21 18:39:00,
2013-06-21 14:44:00,76.8,66.3,30.22,ESE,108,1.0,1.0,70,0.00,,,0.00,290,Wunderground v.1.15,2013-06-21 18:44:00,
2013-06-21 14:49:00,77.0,64.8,30.22,SE,145,1.0,2.0,66,0.00,,,0.00,860,Wunderground v.1.15,2013-06-21 18:49:00,
2013-06-21 14:54:00,77.6,64.9,30.22,WSW,254,2.0,2.0,65,0.00,,,0.00,782,Wunderground v.1.15,2013-06-21 18:54:00,
2013-06-21 14:59:00,78.3,67.7,30.22,WNW,287,2.0,4.0,70,0.00,,,0.00,772,Wunderground v.1.15,2013-06-21 18:59:00,
2013-06-21 15:04:00,78.3,65.6,30.23,East,88,2.0,2.0,65,0.00,,,0.00,788,Wunderground v.1.15,2013-06-21 19:04:00,
2013-06-21 15:14:00,77.6,65.8,30.23,SE,136,2.0,4.0,67,0.00,,,0.00,791,Wunderground v.1.15,2013-06-21 19:14:00,
2013-06-21 15:24:00,78.1,62.6,30.23,ESE,117,2.0,2.0,59,0.00,,,0.00,809,Wunderground v.1.15,2013-06-21 19:24:00,
2013-06-21 15:29:00,77.3,63.3,30.23,South,190,2.0,2.0,62,0.00,,,0.00,223,Wunderground v.1.15,2013-06-21 19:29:00,
2013-06-21 15:34:00,77.3,65.5,30.23,NNE,12,1.0,5.0,67,0.00,,,0.00,782,Wunderground v.1.15,2013-06-21 19:34:00,
2013-06-21 15:39:00,77.8,66.4,30.22,SE,144,2.0,5.0,68,0.00,,,0.00,707,Wunderground v.1.15,2013-06-21 19:39:00,
2013-06-21 15:44:00,77.5,66.9,30.22,East,85,2.0,2.0,70,0.00,,,0.00,700,Wunderground v.1.15,2013-06-21 19:44:00,
2013-06-21 15:49:00,76.9,67.2,30.22,SE,146,1.0,2.0,72,0.00,,,0.00,172,Wunderground v.1.15,2013-06-21 19:49:00,
2013-06-21 15:54:00,75.9,66.2,30.22,SE,146,1.0,1.0,72,0.00,,,0.00,770,Wunderground v.1.15,2013-06-21 19:54:00,
2013-06-21 15:59:00,76.6,66.1,30.22,South,183,0.0,5.0,70,0.00,,,0.00,577,Wunderground v.1.15,2013-06-21 19:59:00,
2013-06-21 16:04:00,77.0,66.0,30.22,South,174,1.0,1.0,69,0.00,,,0.00,599,Wunderground v.1.15,2013-06-21 20:04:00,
2013-06-21 16:14:00,77.2,65.0,30.22,East,99,2.0,3.0,66,0.00,,,0.00,635,Wunderground v.1.15,2013-06-21 20:14:00,
2013-06-21 16:19:00,76.7,66.6,30.22,South,176,2.0,3.0,71,0.00,,,0.00,573,Wunderground v.1.15,2013-06-21 20:19:00,
2013-06-21 16:24:00,76.2,66.1,30.22,SSE,167,2.0,2.0,71,0.00,,,0.00,153,Wunderground v.1.15,2013-06-21 20:24:00,
2013-06-21 16:29:00,75.8,65.3,30.22,SE,133,1.0,2.0,70,0.00,,,0.00,130,Wunderground v.1.15,2013-06-21 20:29:00,
2013-06-21 16:34:00,75.4,68.1,30.22,SE,127,0.0,0.0,78,0.00,,,0.00,628,Wunderground v.1.15,2013-06-21 20:34:00,
2013-06-21 16:44:00,76.5,64.7,30.22,ESE,117,1.0,1.0,67,0.00,,,0.00,374,Wunderground v.1.15,2013-06-21 20:44:00,
2013-06-21 16:54:00,75.8,64.9,30.22,West,261,1.0,3.0,69,0.00,,,0.00,302,Wunderground v.1.15,2013-06-21 20:54:00,
2013-06-21 16:59:00,75.8,65.7,30.22,NW,325,1.0,3.0,71,0.00,,,0.00,276,Wunderground v.1.15,2013-06-21 20:59:00,
2013-06-21 17:09:00,75.7,66.0,30.21,South,176,1.0,3.0,72,0.00,,,0.00,186,Wunderground v.1.15,2013-06-21 21:09:00,
2013-06-21 17:14:00,75.4,65.3,30.21,South,184,1.0,1.0,71,0.00,,,0.00,151,Wunderground v.1.15,2013-06-21 21:14:00,
2013-06-21 17:19:00,75.0,65.4,30.21,East,89,1.0,1.0,72,0.00,,,0.00,232,Wunderground v.1.15,2013-06-21 21:19:00,
2013-06-21 17:24:00,74.7,65.9,30.21,SSE,147,1.0,2.0,74,0.00,,,0.00,236,Wunderground v.1.15,2013-06-21 21:24:00,
2013-06-21 17:34:00,74.7,65.1,30.21,West,281,1.0,3.0,72,0.00,,,0.00,100,Wunderground v.1.15,2013-06-21 21:34:00,
2013-06-21 17:39:00,74.7,65.5,30.21,SW,236,1.0,3.0,73,0.00,,,0.00,102,Wunderground v.1.15,2013-06-21 21:39:00,
2013-06-21 17:49:00,74.6,65.4,30.21,SSE,166,0.0,2.0,73,0.00,,,0.00,86,Wunderground v.1.15,2013-06-21 21:49:00,
2013-06-21 17:54:00,74.6,64.6,30.21,South,171,0.0,0.0,71,0.00,,,0.00,84,Wunderground v.1.15,2013-06-21 21:54:00,
2013-06-21 18:04:00,74.6,63.8,30.21,SSE,150,1.0,1.0,69,0.00,,,0.00,84,Wunderground v.1.15,2013-06-21 22:04:00,
2013-06-21 18:09:00,74.5,64.9,30.21,ESE,111,0.0,2.0,72,0.00,,,0.00,79,Wunderground v.1.15,2013-06-21 22:09:00,
2013-06-21 18:14:00,74.4,63.6,30.21,WNW,300,0.0,0.0,69,0.00,,,0.00,77,Wunderground v.1.15,2013-06-21 22:14:00,
2013-06-21 18:19:00,74.3,63.9,30.21,SSW,196,0.0,0.0,70,0.00,,,0.00,76,Wunderground v.1.15,2013-06-21 22:19:00,
2013-06-21 18:24:00,74.2,64.2,30.21,South,182,0.0,1.0,71,0.00,,,0.00,72,Wunderground v.1.15,2013-06-21 22:24:00,
2013-06-21 18:29:00,74.0,63.2,30.21,East,90,1.0,1.0,69,0.00,,,0.00,69,Wunderground v.1.15,2013-06-21 22:29:00,
2013-06-21 18:39:00,73.7,64.5,30.22,SE,132,0.0,1.0,73,0.00,,,0.00,70,Wunderground v.1.15,2013-06-21 22:39:00,
2013-06-21 18:49:00,73.5,64.3,30.22,SE,132,0.0,0.0,73,0.00,,,0.00,60,Wunderground v.1.15,2013-06-21 22:49:00,
2013-06-21 18:54:00,73.3,64.5,30.22,SE,132,0.0,0.0,74,0.00,,,0.00,60,Wunderground v.1.15,2013-06-21 22:54:00,
2013-06-21 18:59:00,73.3,65.3,30.22,SE,132,0.0,0.0,76,0.00,,,0.00,58,Wunderground v.1.15,2013-06-21 22:59:00,
2013-06-21 19:04:00,73.0,65.0,30.22,SE,132,0.0,0.0,76,0.00,,,0.00,56,Wunderground v.1.15,2013-06-21 23:04:00,
2013-06-21 19:14:00,72.8,64.8,30.22,SE,132,0.0,0.0,76,0.00,,,0.00,49,Wunderground v.1.15,2013-06-21 23:14:00,
2013-06-21 19:19:00,72.6,64.6,30.22,SE,132,0.0,0.0,76,0.00,,,0.00,46,Wunderground v.1.15,2013-06-21 23:19:00,
2013-06-21 19:24:00,72.4,64.4,30.22,SE,132,0.0,0.0,76,0.00,,,0.00,42,Wunderground v.1.15,2013-06-21 23:24:00,
2013-06-21 19:29:00,72.1,64.1,30.22,SE,132,0.0,0.0,76,0.00,,,0.00,40,Wunderground v.1.15,2013-06-21 23:29:00,
2013-06-21 19:39:00,71.7,63.7,30.22,SE,132,0.0,0.0,76,0.00,,,0.00,37,Wunderground v.1.15,2013-06-21 23:39:00,
2013-06-21 19:49:00,71.3,63.7,30.22,SE,133,0.0,0.0,77,0.00,,,0.00,30,Wunderground v.1.15,2013-06-21 23:49:00,
2013-06-21 19:54:00,71.2,64.0,30.22,SSE,152,0.0,2.0,78,0.00,,,0.00,25,Wunderground v.1.15,2013-06-21 23:54:00,
2013-06-21 20:04:00,70.7,63.5,30.22,South,176,0.0,0.0,78,0.00,,,0.00,18,Wunderground v.1.15,2013-06-22 00:04:00,
2013-06-21 20:09:00,70.6,64.1,30.22,South,176,0.0,0.0,80,0.00,,,0.00,14,Wunderground v.1.15,2013-06-22 00:09:00,
2013-06-21 20:14:00,70.3,63.8,30.22,South,176,0.0,0.0,80,0.00,,,0.00,11,Wunderground v.1.15,2013-06-22 00:14:00,
2013-06-21 20:19:00,70.1,64.0,30.22,South,176,0.0,0.0,81,0.00,,,0.00,9,Wunderground v.1.15,2013-06-22 00:19:00,
2013-06-21 20:29:00,69.6,63.2,30.22,South,182,0.0,0.0,80,0.00,,,0.00,0,Wunderground v.1.15,2013-06-22 00:29:00,
2013-06-21 20:34:00,69.2,62.4,30.23,South,186,0.0,0.0,79,0.00,,,0.00,0,Wunderground v.1.15,2013-06-22 00:34:00,
2013-06-21 20:44:00,68.8,62.7,30.23,SE,136,0.0,0.0,81,0.00,,,0.00,0,Wunderground v.1.15,2013-06-22 00:44:00,
2013-06-21 20:49:00,68.4,61.6,30.22,SE,140,0.0,0.0,79,0.00,,,0.00,0,Wunderground v.1.15,2013-06-22 00:49:00,
2013-06-21 20:54:00,68.1,61.3,30.23,SW,230,0.0,0.0,79,0.00,,,0.00,0,Wunderground v.1.15,2013-06-22 00:54:00,
2013-06-21 20:59:00,67.9,61.5,30.22,SW,221,0.0,0.0,80,0.00,,,0.00,0,Wunderground v.1.15,2013-06-22 00:59:00,
2013-06-21 21:04:00,67.6,61.2,30.22,SSE,160,0.0,0.0,80,0.00,,,0.00,0,Wunderground v.1.15,2013-06-22 01:04:00,
2013-06-21 21:14:00,67.1,60.4,30.22,ESE,113,0.0,0.0,79,0.00,,,0.00,0,Wunderground v.1.15,2013-06-22 01:14:00,
2013-06-21 21:19:00,66.9,60.5,30.22,South,169,0.0,0.0,80,0.00,,,0.00,0,Wunderground v.1.15,2013-06-22 01:19:00,
2013-06-21 21:29:00,66.7,60.0,30.23,South,188,0.0,0.0,79,0.00,,,0.00,0,Wunderground v.1.15,2013-06-22 01:29:00,
2013-06-21 21:39:00,66.5,60.1,30.23,South,185,0.0,0.0,80,0.00,,,0.00,0,Wunderground v.1.15,2013-06-22 01:39:00,
2013-06-21 21:49:00,66.2,59.5,30.23,ENE,59,0.0,2.0,79,0.00,,,0.00,0,Wunderground v.1.15,2013-06-22 01:49:00,
2013-06-21 21:54:00,66.1,59.4,30.23,SE,146,1.0,1.0,79,0.00,,,0.00,0,Wunderground v.1.15,2013-06-22 01:54:00,
2013-06-21 21:59:00,65.9,58.8,30.23,SE,126,1.0,1.0,78,0.00,,,0.00,0,Wunderground v.1.15,2013-06-22 01:59:00,
2013-06-21 22:04:00,65.8,59.1,30.23,SE,125,1.0,1.0,79,0.00,,,0.00,0,Wunderground v.1.15,2013-06-22 02:04:00,
2013-06-21 22:09:00,65.7,59.0,30.23,SE,125,0.0,1.0,79,0.00,,,0.00,0,Wunderground v.1.15,2013-06-22 02:09:00,
2013-06-21 22:14:00,65.6,59.3,30.23,SE,125,0.0,0.0,80,0.00,,,0.00,0,Wunderground v.1.15,2013-06-22 02:14:00,
2013-06-21 22:19:00,65.4,58.7,30.23,SE,125,0.0,0.0,79,0.00,,,0.00,0,Wunderground v.1.15,2013-06-22 02:19:00,
2013-06-21 22:24:00,65.2,58.9,30.23,ESE,123,0.0,0.0,80,0.00,,,0.00,0,Wunderground v.1.15,2013-06-22 02:24:00,
2013-06-21 22:29:00,64.9,58.6,30.23,SE,125,0.0,0.0,80,0.00,,,0.00,0,Wunderground v.1.15,2013-06-22 02:29:00,
2013-06-21 22:39:00,64.7,58.7,30.23,SE,125,0.0,0.0,81,0.00,,,0.00,0,Wunderground v.1.15,2013-06-22 02:39:00,
2013-06-21 22:49:00,64.3,58.7,30.23,West,260,1.0,1.0,82,0.00,,,0.00,0,Wunderground v.1.15,2013-06-22 02:49:00,
2013-06-21 22:54:00,64.1,58.5,30.23,SE,136,0.0,0.0,82,0.00,,,0.00,0,Wunderground v.1.15,2013-06-22 02:54:00,
2013-06-21 23:04:00,63.7,58.4,30.23,ENE,73,0.0,0.0,83,0.00,,,0.00,0,Wunderground v.1.15,2013-06-22 03:04:00,
2013-06-21 23:09:00,63.5,58.2,30.22,East,90,0.0,1.0,83,0.00,,,0.00,0,Wunderground v.1.15,2013-06-22 03:09:00,
2013-06-21 23:14:00,63.3,58.0,30.23,South,171,1.0,1.0,83,0.00,,,0.00,0,Wunderground v.1.15,2013-06-22 03:14:00,
2013-06-21 23:19:00,63.2,58.3,30.23,South,171,0.0,1.0,84,0.00,,,0.00,0,Wunderground v.1.15,2013-06-22 03:19:00,
2013-06-21 23:29:00,62.9,58.0,30.23,SSE,167,0.0,0.0,84,0.00,,,0.00,0,Wunderground v.1.15,2013-06-22 03:29:00,
2013-06-21 23:34:00,62.8,57.9,30.23,South,170,0.0,0.0,84,0.00,,,0.00,0,Wunderground v.1.15,2013-06-22 03:34:00,
2013-06-21 23:39:00,62.6,57.7,30.23,East,100,0.0,0.0,84,0.00,,,0.00,0,Wunderground v.1.15,2013-06-22 03:39:00,
2013-06-21 23:44:00,62.5,57.9,30.22,East,100,0.0,1.0,85,0.00,,,0.00,0,Wunderground v.1.15,2013-06-22 03:44:00,
2013-06-21 23:49:00,62.3,57.7,30.22,East,100,0.0,1.0,85,0.00,,,0.00,0,Wunderground v.1.15,2013-06-22 03:49:00,
2013-06-21 23:59:00,62.0,57.4,30.22,South,191,0.0,0.0,85,0.00,,,0.00,0,Wunderground v.1.15,2013-06-22 03:59:00,